Regional Weather Roundup
Issued by NWS Kansas City/Pleasant Hill, MO

Home | Current Version | Previous Version | Text Only | Print | Product List | Glossary On
Versions: 1 2 3 4 5 6 7 8 9 10 11 12 13 14 15 16 17 18 19 20 21 22 23 24 25 26 27 28 29 30 31 32 33 34 35 36 37 38 39 40 41 42 43 44 45 46 47 48 49 50
000
ASUS43 KEAX 290104
RWREAX

WEATHER ROUNDUP FOR EASTERN KANSAS AND NORTHWEST MISSOURI
NATIONAL WEATHER SERVICE KANSAS CITY/PLEASANT HILL MO
800 PM CDT THU AUG 28 2014

KSZ040-057-103>105-MOZ028-029-037-043-290200-
...KANSAS CITY METROPOLITAN AREA...

CITY           SKY/WX    TMP DP  RH WIND       PRES   REMARKS
K.C. INTL      PTCLDY    84  67  56 S16       29.84F
K.C. DOWNTOWN  CLEAR     89  64  43 S10G20    29.84F HX  90
LEES SUMMIT    CLEAR     85  67  54 S3        29.88S
OLATHE - IXD   CLEAR     85  66  53 SE12      29.86F
OLATHE - OJC   CLEAR     83  65  54 SE9       29.86F
LAWRENCE       PTCLDY    85  66  53 SE6       29.83S

$$

MOZ001>008-011>017-020>025-030>033-038>040-044>046-053-054-290200-
...NORTHERN AND CENTRAL MISSOURI...

CITY           SKY/WX    TMP DP  RH WIND       PRES   REMARKS
ST. JOSEPH     PTCLDY    83  71  67 SE9       29.83S
MOSBY          CLEAR     82  70  65 SE7       29.85F
WHITEMAN AFB   PTCLDY    81  74  78 SE5       29.89R
CLINTON        CLEAR     82  70  65 CALM      29.89S
SEDALIA        CLEAR     84  68  58 SE5       29.91R
WARSAW         NOT AVBL
MARSHALL       CLEAR     86  73  66 E6        29.90S HX  93
CHILLICOTHE      N/A     81  73  76 CALM      29.89S
MOBERLY        CLEAR     81  72  74 E6        29.92S
KIRKSVILLE     CLEAR     77  73  87 E7        29.93S

$$

MOZ041-047>049-056>058-063>065-088>090-097-290200-
...EASTERN AND SOUTHERN MISSOURI...

CITY           SKY/WX    TMP DP  RH WIND       PRES   REMARKS
ST. LOUIS INTL MOCLDY    81  69  67 SE14      29.98R
SPIRIT OF STL  MOCLDY    76  72  87 E7        29.95R
COLUMBIA       CLEAR     86  66  51 SE5       29.92R
JEFFERSON CITY CLEAR     85  68  56 E5        29.90R
MEXICO         PTCLDY    82  75  78 E5        29.93
ROLLA          CLEAR     82  64  54 SE6       29.94R
LEBANON        CLEAR     82  61  47 SE5       29.96R
OSAGE BEACH    CLEAR     84  64  51 SE3       29.92R
SPRINGFIELD    CLEAR     84  59  42 S8        29.93R
BRANSON        CLEAR     82  59  44 S7        29.96R
NEVADA         CLEAR     82  63  51 S5        29.91S
JOPLIN         CLEAR     83  61  47 S6        29.92R
WEST PLAINS    CLEAR     83  62  49 SE5       29.97R

$$

IAZ060-094-KSZ022-034>040-054-083-096-NEZ052-066-093-290200-
...KANSAS...SOUTHEAST NEBRASKA AND IOWA...

CITY           SKY/WX    TMP DP  RH WIND       PRES   REMARKS
TOPEKA         MOCLDY    87  64  46 S3        29.83R
MANHATTAN      CLOUDY    78  70  76 CALM      29.83S
EMPORIA        MOCLDY    82  66  58 SE8       29.84F
CHANUTE        CLEAR     84  60  44 S9        29.88S
WICHITA        CLOUDY    74  65  73 S9        29.86F
OMAHA          CLOUDY    78  71  79 S5        29.81F
LINCOLN        CLOUDY    77  68  73 SE10      29.84S
FALLS CITY     CLOUDY    79  74  84 CALM      29.82F
LAMONI         PTCLDY    77  73  87 E5        29.87F
DES MOINES     MOCLDY    76  71  85 E8        29.87F

$$




USA.gov is the U.S. government's official web portal to all federal, state and local government web resources and services.